Wind_Speed
2 2 3 3 4 4 4 4 4 4 4 4 4 4 4 4 3 1 2 2 3 4 5 5 6 7 8 9 10 11 12 13 14 15 16 16 17 17 18 19 19 19 20 20 20 21 21 22 22
2 2 2 3 4 3 4 4 4 5 4 4 4 4 4 4 3 3 3 3 4 4 5 6 6 7 8 9 10 11 13 14 14 15 16 16 17 17 18 19 19 20 20 20 21 21 22 22 22
2 2 3 3 3 3 3 3 3 4 4 4 4 4 4 4 3 3 4 4 5 5 6 7 8 8 9 10 11 12 13 14 15 16 16 17 17 18 18 19 20 20 21 21 22 22 22 22 22
4 3 3 3 3 3 2 2 3 3 4 4 4 4 4 4 4 5 5 6 6 7 8 8 9 10 11 12 12 13 14 15 16 16 17 18 19 19 20 20 20 20 21 21 22 22 22 23 23
6 5 4 4 4 4 3 3 3 4 4 4 5 5 5 5 5 5 7 7 8 8 9 9 10 11 12 13 14 14 15 16 17 17 18 19 19 20 20 20 21 21 22 22 22 23 23 23 23
8 7 6 6 6 5 5 4 4 4 4 5 5 6 6 6 6 6 8 9 9 9 10 10 11 12 12 13 14 15 15 16 17 17 18 19 20 20 20 21 21 22 22 22 23 23 23 24 24
10 9 7 7 8 7 7 6 5 5 6 6 6 7 7 7 7 8 9 10 10 10 11 12 12 13 13 14 15 15 16 17 17 18 19 19 20 20 21 21 21 22 22 23 23 24 24 25 25
12 11 10 9 9 9 9 8 7 7 7 7 7 8 9 9 9 9 10 11 11 12 12 13 13 14 14 15 16 16 17 18 18 19 20 20 20 21 21 21 22 22 23 23 24 24 25 25 25
15 14 12 11 11 10 10 10 9 9 9 9 9 10 11 11 11 11 11 12 13 13 13 14 14 15 15 16 17 17 18 18 19 19 20 21 21 21 21 22 22 23 23 24 24 25 25 25 25
17 16 15 14 13 13 12 12 12 12 11 11 12 12 12 13 13 13 13 13 14 14 15 16 16 16 16 17 18 18 19 19 19 20 21 21 22 22 22 23 23 23 24 24 25 25 25 26 26
20 18 17 17 16 15 15 14 14 14 14 14 14 14 14 14 15 15 15 15 15 16 16 17 17 18 18 18 19 20 20 20 21 21 21 22 22 23 23 23 24 24 25 25 25 26 26 26 27
22 21 20 19 18 18 17 17 16 16 16 16 16 16 16 16 16 16 17 17 16 17 18 18 18 19 20 20 20 21 21 22 22 22 22 22 23 23 24 24 24 25 25 25 26 26 26 27 27
24 23 22 21 21 20 20 19 19 18 18 19 19 18 18 17 17 18 18 18 18 18 18 19 19 20 20 21 22 22 22 23 23 23 24 24 24 24 25 25 25 25 26 26 26 27 27 28 28
25 24 23 23 23 22 22 21 21 20 20 20 20 19 19 19 19 19 19 19 20 20 20 20 20 21 21 22 22 23 24 24 24 25 25 25 25 25 25 26 26 27 27 27 27 28 28 28 29
27 26 25 25 24 24 24 24 22 22 22 21 21 21 20 20 20 20 21 21 21 21 21 21 22 22 22 23 23 24 25 25 26 26 26 26 26 26 27 27 28 28 28 28 28 29 29 29 30
29 28 27 26 25 25 25 25 24 23 23 22 22 22 22 22 21 21 21 21 22 22 23 23 23 23 24 24 24 25 25 26 27 27 27 27 27 28 28 28 29 29 29 29 29 30 30 31 31
30 30 28 27 26 26 26 26 25 25 24 23 23 23 23 22 22 22 23 22 23 23 24 24 25 25 25 25 26 26 26 27 28 28 28 28 29 29 30 30 30 30 30 31 31 31 32 32 33
30 30 29 28 27 27 27 26 26 26 24 24 24 24 23 23 23 23 24 24 24 24 25 25 26 26 26 27 27 27 28 28 29 29 29 30 30 30 31 31 31 32 32 32 32 33 33 33 34
31 30 30 29 28 28 27 26 26 26 25 25 25 25 25 24 24 24 25 25 25 26 26 27 27 27 28 28 28 29 29 29 30 30 31 31 31 32 32 32 32 33 33 34 34 34 34 35 35
32 31 30 30 29 29 28 27 27 27 26 26 26 26 25 25 25 25 25 26 26 27 27 27 27 28 29 29 29 30 30 30 31 31 32 32 32 33 33 33 34 34 35 35 36 36 36 36 37
32 31 30 30 30 30 29 27 27 27 26 26 26 26 26 25 25 25 26 26 27 27 27 27 27 28 29 29 30 30 30 31 32 32 33 33 33 34 34 35 35 36 37 37 37 37 38 39 39
32 31 30 30 30 29 29 28 26 25 25 25 25 26 25 25 25 25 25 26 26 27 27 27 27 28 29 30 30 30 31 31 32 33 34 34 34 35 36 37 37 38 38 38 39 39 40 41 41
31 30 30 30 30 30 29 30 25 24 24 24 24 25 25 25 25 25 25 25 26 27 27 27 28 28 29 30 30 31 32 32 33 34 34 35 36 36 37 38 39 39 39 40 40 41 42 42 43
31 31 31 31 31 30 29 30 27 25 24 24 24 24 25 25 25 25 25 25 26 27 27 28 28 29 30 31 31 32 33 33 34 34 35 36 37 38 39 39 40 40 41 41 42 42 43 44 45
32 32 32 33 32 31 30 30 28 26 25 25 24 24 25 25 25 25 26 26 27 28 28 29 29 30 31 31 32 33 34 34 35 36 36 37 38 39 40 40 41 41 42 42 43 44 45 46 46
34 34 33 34 33 32 31 30 28 27 27 26 25 25 25 25 26 26 26 27 28 28 29 30 30 31 32 32 33 34 34 35 36 37 37 38 39 39 40 41 41 42 42 43 44 45 46 47 48
35 35 33 34 34 33 32 30 28 27 27 27 26 26 26 26 26 26 27 27 28 29 30 31 31 32 33 34 34 35 36 36 37 38 38 39 39 40 41 42 42 43 44 45 46 47 48 48 49
35 34 34 34 35 34 33 30 28 27 27 27 26 26 26 26 26 27 28 28 29 30 31 31 32 33 34 34 35 36 36 37 38 38 38 39 40 41 42 42 44 45 46 46 47 48 49 50 51
35 35 34 35 35 35 34 30 27 27 27 27 26 26 26 26 26 27 28 29 30 30 31 32 33 33 34 35 35 36 37 37 38 38 39 40 41 42 43 44 45 45 46 47 48 50 51 52 53
36 35 35 36 35 35 35 30 27 28 28 28 28 27 26 27 27 28 29 30 30 31 32 32 33 34 34 35 36 36 37 38 38 39 40 41 42 43 44 45 46 46 47 49 50 51 52 54 55
Wind_Direction
35 46 48 50 52 57 67 80 86 82 72 66 62 53 49 49 40 9 322 307 294 290 288 289 291 292 291 291 291 292 291 291 291 291 290 288 287 286 286 286 285 285 285 284 284 284 284 283 282
342 6 25 42 42 49 61 62 67 62 55 51 50 41 32 35 29 360 328 320 312 306 301 298 298 298 298 296 295 294 293 293 293 293 292 291 289 288 287 286 286 286 286 286 286 286 285 284 283
311 329 355 25 32 28 39 42 49 46 37 31 30 25 12 11 14 348 329 324 322 316 309 304 301 300 299 299 297 296 295 295 294 293 292 292 291 289 289 288 287 287 287 287 287 287 286 285 283
283 305 322 346 350 342 352 10 24 27 18 11 4 3 353 353 353 338 327 325 324 318 312 307 303 300 298 297 298 296 296 295 295 293 292 291 290 289 289 289 288 288 288 288 287 287 286 285 284
272 283 299 315 317 315 322 340 356 1 356 352 347 345 339 340 340 331 325 323 323 318 314 310 306 302 299 297 297 297 296 296 295 294 293 292 291 291 290 289 289 288 288 288 288 288 287 286 285
264 271 284 295 300 301 309 323 336 340 335 335 334 329 327 331 331 326 321 321 321 319 316 313 308 305 301 298 297 298 298 298 297 295 294 294 292 292 291 290 290 289 289 289 289 289 288 288 287
258 263 271 279 287 292 299 307 314 319 319 319 320 315 316 320 321 319 316 317 318 317 316 314 310 306 303 300 299 300 299 298 298 296 295 295 295 294 293 292 291 290 290 290 290 289 289 288 287
256 260 265 272 278 284 288 294 300 305 306 307 308 305 306 311 312 312 312 311 311 310 310 311 309 306 304 302 302 302 301 300 298 297 296 296 296 295 294 293 293 292 292 291 291 290 290 289 288
254 258 263 268 273 277 281 286 291 294 296 297 299 298 298 302 305 307 307 305 305 304 305 306 307 306 305 304 303 304 303 302 301 299 298 298 297 297 295 295 294 294 294 293 292 291 290 290 289
253 257 262 266 269 273 276 280 285 288 290 292 294 295 294 296 300 302 302 301 301 302 302 303 304 304 303 302 302 302 302 301 301 300 299 299 299 298 297 296 296 295 295 293 292 292 291 290 290
253 256 261 263 266 269 272 277 281 284 286 289 290 291 291 293 295 298 299 299 299 299 300 301 302 301 301 300 299 300 300 300 299 299 299 300 300 299 298 297 297 296 296 294 293 292 292 291 291
252 255 258 261 263 267 270 275 278 281 283 285 286 288 289 292 294 296 297 298 298 298 298 299 300 300 300 300 299 299 298 298 298 298 298 299 299 299 299 299 298 297 296 295 293 293 292 292 292
250 253 256 259 262 265 269 273 276 279 281 283 284 286 287 289 291 293 295 296 297 297 297 297 298 298 297 298 298 298 297 297 297 297 298 298 298 298 298 298 298 297 297 296 295 294 293 293 292
249 252 255 258 261 264 268 271 274 277 279 281 282 283 284 287 291 292 293 294 295 295 296 296 296 296 296 296 296 296 296 297 297 297 297 297 296 296 297 297 297 297 296 296 295 294 293 293 293
248 251 253 256 260 263 266 269 272 274 276 278 280 282 282 284 288 290 292 292 293 293 294 294 295 295 295 295 295 294 294 294 295 295 295 295 295 295 296 296 296 295 295 294 294 294 294 293 293
248 250 253 255 258 261 264 268 271 272 274 276 278 280 281 283 285 287 288 289 290 291 292 292 293 293 294 294 294 294 293 293 293 294 294 294 294 294 295 295 295 295 294 294 294 294 294 294 293
247 250 252 255 258 260 262 265 269 271 273 274 276 278 280 282 283 284 285 285 287 289 290 290 290 291 292 293 292 292 291 291 292 292 293 293 294 294 295 295 294 294 294 294 294 293 293 294 294
248 251 253 255 257 259 262 263 266 270 272 273 275 277 279 280 281 283 283 284 286 287 289 289 290 290 290 291 291 291 290 290 290 291 292 293 293 293 294 294 294 294 294 294 294 293 293 294 294
248 250 252 255 257 259 260 262 266 269 271 273 275 277 279 280 280 281 282 283 285 287 288 289 289 289 289 289 290 290 290 290 290 290 291 292 292 292 293 293 293 294 294 294 294 294 294 294 294
247 249 252 256 259 260 260 261 264 268 271 274 276 277 279 280 280 280 281 283 285 286 288 288 288 288 288 288 288 289 290 290 289 290 290 291 291 291 292 292 293 293 293 293 293 293 293 294 294
247 249 253 256 259 261 261 261 265 268 271 273 275 277 278 278 278 280 281 282 284 286 287 288 288 287 287 288 289 289 290 290 289 289 290 291 291 291 291 292 292 292 293 293 293 293 293 294 294
246 249 252 256 258 260 263 263 263 268 270 273 275 277 278 279 280 280 281 282 284 286 287 288 288 287 287 288 289 289 289 289 289 289 290 290 291 291 291 291 292 292 292 293 293 293 294 294 294
246 248 252 255 258 260 263 265 261 266 269 272 275 277 279 280 281 282 282 283 285 287 288 288 288 288 288 288 288 289 289 289 289 289 289 289 289 290 290 291 291 291 292 292 293 293 294 294 294
244 248 252 255 258 260 261 266 265 267 270 272 274 276 278 281 282 282 283 285 286 286 287 288 288 289 289 289 289 288 289 289 289 289 289 289 289 289 290 290 290 291 292 292 293 293 294 294 295
243 247 251 254 257 261 263 266 269 271 271 272 275 277 279 280 281 283 284 285 286 286 287 288 289 289 289 289 289 289 289 288 289 288 289 289 289 289 289 289 290 291 291 292 293 294 294 295 295
243 247 251 256 260 263 265 267 270 271 272 274 276 278 280 281 281 283 284 285 286 287 288 289 289 289 289 289 289 289 288 288 288 288 288 289 289 288 288 289 290 290 291 292 293 294 295 295 296
244 247 252 256 260 263 264 266 268 271 273 276 277 278 280 281 282 283 285 286 288 289 289 290 290 290 290 290 290 289 288 288 288 288 288 289 289 288 289 289 290 290 291 292 293 294 294 295 296
245 248 251 255 260 263 264 266 269 271 274 276 277 278 280 282 283 284 286 288 289 290 290 291 292 291 291 291 291 290 289 289 289 288 289 289 289 289 289 289 290 291 292 292 293 294 294 295 295
243 245 249 254 258 262 265 267 270 272 274 276 277 278 280 281 282 284 286 288 289 290 291 292 292 292 292 291 291 291 290 289 289 289 289 290 289 289 290 290 291 291 291 292 293 293 294 295 296
243 246 249 253 258 262 265 268 270 272 273 275 277 279 280 282 283 285 286 288 290 291 291 292 292 292 292 292 292 291 291 290 290 290 290 290 291 291 291 291 292 292 292 293 294 295 295 296 297
Height
5881 5881 5881 5882 5882 5882 5881 5881 5880 5880 5880 5880 5880 5879 5879 5880 5880 5881 5879 5877 5877 5877 5877 5876 5876 5876 5875 5875 5875 5874 5874 5873 5872 5872 5871 5870 5869 5868 5868 5867 5866 5865 5864 5863 5862 5861 5860 5859 5859
5881 5881 5882 5882 5882 5882 5882 5881 5880 5880 5880 5880 5880 5879 5879 5879 5879 5878 5876 5876 5876 5876 5875 5875 5875 5874 5874 5873 5873 5872 5871 5871 5870 5869 5868 5867 5866 5865 5864 5863 5862 5861 5860 5859 5858 5857 5856 5855 5855
5881 5881 5882 5882 5881 5882 5882 5881 5880 5880 5880 5880 5879 5879 5879 5879 5878 5877 5876 5875 5875 5874 5874 5873 5873 5873 5872 5871 5871 5870 5869 5868 5868 5867 5866 5865 5864 5862 5861 5860 5859 5858 5857 5856 5855 5853 5852 5851 5850
5880 5881 5882 5882 5881 5881 5881 5880 5880 5880 5879 5879 5879 5879 5878 5878 5878 5877 5875 5874 5874 5873 5873 5872 5871 5871 5870 5870 5869 5868 5867 5866 5865 5864 5863 5862 5861 5859 5858 5857 5855 5854 5853 5852 5850 5849 5848 5847 5846
5879 5880 5880 5880 5880 5880 5880 5880 5879 5879 5879 5879 5878 5878 5877 5877 5877 5876 5874 5873 5873 5872 5871 5870 5869 5869 5868 5867 5866 5866 5865 5864 5862 5861 5860 5859 5857 5856 5855 5853 5852 5850 5849 5848 5846 5845 5844 5842 5841
5878 5878 5879 5879 5879 5879 5879 5878 5878 5878 5878 5877 5877 5876 5876 5876 5875 5875 5873 5872 5871 5870 5869 5868 5867 5867 5866 5865 5864 5863 5862 5861 5859 5858 5857 5855 5854 5853 5851 5849 5848 5847 5845 5844 5842 5841 5839 5838 5836
5877 5877 5877 5877 5877 5877 5877 5877 5877 5877 5876 5876 5876 5875 5874 5874 5874 5873 5872 5870 5869 5868 5867 5866 5865 5864 5864 5862 5861 5860 5859 5858 5856 5855 5853 5852 5850 5849 5847 5846 5844 5843 5841 5839 5838 5836 5835 5833 5832
5873 5875 5875 5876 5876 5876 5875 5875 5875 5875 5875 5875 5874 5873 5872 5872 5872 5871 5870 5868 5867 5866 5865 5864 5863 5862 5861 5860 5859 5857 5856 5855 5853 5852 5850 5848 5847 5845 5844 5842 5840 5838 5837 5835 5833 5831 5830 5828 5827
5871 5873 5872 5873 5874 5874 5873 5873 5873 5873 5872 5872 5872 5871 5871 5870 5869 5869 5868 5867 5865 5864 5863 5862 5861 5859 5858 5857 5856 5854 5853 5851 5850 5848 5846 5844 5843 5841 5839 5838 5836 5834 5832 5830 5829 5827 5825 5823 5821
5867 5869 5870 5870 5871 5871 5870 5870 5870 5870 5870 5869 5869 5868 5867 5867 5866 5866 5866 5865 5863 5862 5860 5859 5858 5856 5855 5854 5853 5851 5850 5848 5846 5844 5842 5841 5839 5837 5835 5833 5832 5830 5828 5826 5824 5822 5820 5818 5816
5864 5865 5866 5866 5867 5867 5867 5867 5867 5867 5866 5866 5866 5865 5864 5864 5863 5862 5862 5861 5860 5859 5857 5856 5855 5853 5852 5850 5849 5848 5846 5844 5842 5840 5839 5837 5835 5833 5831 5829 5827 5825 5823 5821 5819 5817 5815 5812 5810
5860 5861 5862 5862 5863 5863 5863 5863 5864 5863 5863 5863 5862 5862 5861 5861 5860 5859 5858 5857 5857 5855 5854 5852 5851 5849 5848 5846 5845 5843 5842 5840 5838 5836 5834 5832 5830 5828 5826 5824 5822 5820 5818 5816 5813 5811 5809 5807 5805
5855 5856 5857 5858 5858 5859 5859 5859 5859 5860 5859 5858 5858 5858 5857 5857 5856 5855 5854 5853 5852 5851 5850 5849 5847 5846 5844 5842 5840 5839 5837 5835 5834 5832 5830 5827 5825 5823 5821 5819 5817 5815 5812 5810 5808 5806 5803 5801 5799
5850 5851 5852 5853 5854 5855 5855 5855 5855 5855 5855 5854 5854 5854 5853 5853 5852 5851 5850 5849 5848 5847 5846 5845 5843 5842 5840 5838 5836 5834 5832 5830 5828 5826 5824 5822 5820 5818 5816 5814 5811 5809 5807 5804 5802 5800 5797 5795 5792
5844 5846 5847 5848 5849 5850 5850 5850 5851 5851 5850 5850 5849 5849 5849 5848 5847 5846 5845 5844 5843 5842 5841 5840 5838 5837 5835 5833 5831 5829 5827 5825 5823 5821 5819 5817 5815 5813 5810 5808 5806 5803 5801 5798 5796 5793 5791 5789 5786
5838 5840 5842 5844 5844 5845 5846 5846 5846 5845 5845 5845 5844 5844 5844 5843 5843 5842 5840 5839 5838 5837 5836 5835 5833 5831 5830 5828 5826 5824 5822 5820 5818 5816 5814 5811 5809 5807 5804 5802 5800 5797 5795 5792 5790 5787 5784 5782 5779
5832 5834 5836 5838 5839 5839 5840 5840 5840 5840 5840 5840 5839 5839 5839 5838 5837 5836 5835 5834 5833 5832 5831 5829 5827 5826 5824 5822 5820 5818 5816 5814 5812 5810 5807 5805 5803 5800 5798 5796 5793 5790 5788 5785 5783 5780 5778 5775 5772
5827 5829 5830 5832 5833 5833 5834 5835 5834 5834 5835 5835 5834 5834 5833 5833 5832 5831 5830 5829 5828 5826 5825 5823 5821 5820 5818 5816 5814 5812 5810 5808 5806 5803 5801 5799 5796 5794 5791 5789 5786 5783 5781 5778 5775 5773 5770 5767 5764
5820 5822 5823 5825 5826 5827 5828 5828 5828 5828 5829 5829 5828 5828 5828 5827 5826 5825 5824 5822 5821 5820 5819 5817 5815 5813 5811 5809 5807 5805 5803 5801 5799 5796 5794 5792 5789 5787 5784 5781 5779 5776 5773 5771 5768 5765 5762 5759 5756
5812 5814 5817 5818 5819 5820 5821 5822 5822 5822 5822 5822 5822 5822 5821 5821 5820 5819 5817 5816 5815 5813 5812 5810 5808 5806 5805 5803 5801 5799 5797 5794 5792 5790 5787 5784 5782 5779 5777 5774 5771 5768 5766 5763 5760 5757 5754 5751 5748
5805 5808 5810 5812 5812 5812 5814 5816 5816 5816 5816 5816 5815 5815 5815 5814 5814 5812 5811 5809 5808 5807 5805 5803 5801 5799 5797 5796 5794 5792 5789 5787 5785 5782 5780 5777 5774 5772 5769 5766 5763 5761 5758 5755 5752 5748 5745 5742 5739
5799 5802 5803 5804 5805 5806 5807 5808 5810 5810 5810 5810 5809 5808 5808 5807 5807 5805 5804 5802 5801 5800 5798 5796 5794 5792 5790 5788 5786 5784 5782 5780 5777 5775 5772 5769 5767 5764 5761 5758 5755 5752 5749 5746 5743 5740 5736 5733 5729
5793 5794 5795 5796 5797 5799 5799 5799 5804 5804 5804 5803 5803 5802 5801 5800 5799 5798 5797 5796 5794 5793 5791 5789 5787 5785 5783 5781 5779 5777 5775 5772 5770 5767 5764 5761 5759 5756 5752 5749 5746 5743 5740 5737 5734 5730 5727 5723 5719
5785 5787 5787 5788 5789 5791 5793 5792 5795 5797 5797 5797 5796 5796 5794 5793 5792 5791 5790 5789 5787 5786 5784 5782 5780 5778 5776 5773 5771 5769 5767 5764 5762 5759 5756 5753 5750 5747 5744 5740 5737 5734 5731 5727 5724 5720 5717 5713 5709
5777 5779 5780 5780 5781 5784 5786 5785 5788 5790 5790 5790 5790 5789 5787 5786 5785 5784 5783 5782 5780 5778 5777 5775 5773 5770 5768 5766 5763 5761 5758 5756 5753 5751 5748 5744 5741 5738 5735 5731 5728 5725 5721 5718 5714 5710 5706 5702 5698
5769 5771 5773 5774 5775 5777 5777 5778 5782 5782 5782 5782 5782 5781 5780 5779 5778 5777 5776 5774 5772 5771 5769 5767 5765 5763 5760 5758 5755 5753 5750 5747 5745 5742 5738 5735 5732 5729 5725 5722 5718 5715 5711 5707 5703 5699 5695 5691 5686
5760 5763 5766 5766 5766 5768 5769 5772 5774 5774 5774 5775 5774 5774 5773 5772 5771 5770 5768 5767 5765 5763 5761 5759 5757 5754 5752 5749 5747 5744 5741 5738 5736 5732 5729 5726 5723 5719 5715 5712 5708 5704 5701 5697 5692 5688 5684 5679 5675
5753 5755 5756 5757 5758 5759 5761 5764 5767 5767 5767 5767 5767 5766 5765 5764 5763 5762 5761 5759 5757 5755 5753 5750 5748 5746 5743 5740 5738 5735 5732 5729 5726 5723 5720 5716 5713 5709 5705 5702 5698 5694 5690 5686 5681 5677 5672 5667 5662
5745 5747 5748 5749 5750 5752 5753 5759 5760 5760 5759 5759 5759 5758 5757 5757 5756 5754 5753 5751 5749 5747 5744 5742 5739 5737 5734 5731 5728 5725 5722 5719 5716 5713 5710 5706 5703 5699 5695 5691 5687 5683 5679 5674 5670 5665 5660 5655 5650
5735 5738 5740 5742 5743 5744 5745 5752 5752 5752 5751 5750 5750 5750 5749 5749 5748 5746 5744 5742 5740 5738 5736 5733 5730 5728 5725 5722 5719 5716 5713 5709 5706 5703 5700 5696 5692 5688 5684 5680 5676 5672 5668 5663 5658 5653 5647 5642 5636